Time,TemperatureF,DewpointF,PressureIn,WindDirection,WindDirectionDegrees,WindSpeedMPH,WindSpeedGustMPH,Humidity,HourlyPrecipIn,Conditions,Clouds,dailyrainin,SoftwareType,DateUTC
2013-01-08 00:17:00,23.7,16.9,29.97,NNW,337,0.0,0.0,75,0.00,,,0.00,open2300-1.11,2013-01-08 06:17:00,
2013-01-08 00:27:00,23.9,17.1,29.98,NNW,337,0.0,0.0,75,0.00,,,0.00,open2300-1.11,2013-01-08 06:27:00,
2013-01-08 00:37:00,23.9,17.1,29.98,NNW,337,0.0,0.0,75,0.00,,,0.00,open2300-1.11,2013-01-08 06:37:00,
2013-01-08 00:47:00,23.9,17.1,29.98,NNW,337,0.0,0.0,75,0.00,,,0.00,open2300-1.11,2013-01-08 06:47:00,
2013-01-08 00:57:00,23.5,16.5,29.99,NNW,337,0.0,0.0,74,0.00,,,0.00,open2300-1.11,2013-01-08 06:57:00,
2013-01-08 01:07:00,23.4,16.3,29.99,NNW,337,0.0,0.0,74,0.00,,,0.00,open2300-1.11,2013-01-08 07:07:00,
2013-01-08 01:17:00,23.0,15.9,30.00,NNW,337,0.0,0.0,74,0.00,,,0.00,open2300-1.11,2013-01-08 07:17:00,
2013-01-08 01:27:00,22.8,15.8,30.00,NNW,337,0.0,0.0,74,0.00,,,0.00,open2300-1.11,2013-01-08 07:27:00,
2013-01-08 01:37:00,22.8,15.8,30.00,NNW,337,0.0,0.0,74,0.00,,,0.00,open2300-1.11,2013-01-08 07:37:00,
2013-01-08 01:47:00,22.3,15.2,30.00,NNW,337,0.0,0.0,74,0.00,,,0.00,open2300-1.11,2013-01-08 07:47:00,
2013-01-08 01:57:00,21.9,14.9,30.00,NNW,337,0.0,0.0,74,0.00,,,0.00,open2300-1.11,2013-01-08 07:57:00,
2013-01-08 02:07:00,21.9,14.9,30.00,NNW,337,0.0,0.0,74,0.00,,,0.00,open2300-1.11,2013-01-08 08:07:00,
2013-01-08 02:17:00,21.7,14.7,30.01,NNW,337,0.0,0.0,74,0.00,,,0.00,open2300-1.11,2013-01-08 08:17:00,
2013-01-08 02:27:00,21.6,14.2,30.01,NNW,337,0.0,0.0,73,0.00,,,0.00,open2300-1.11,2013-01-08 08:27:00,
2013-01-08 02:37:00,21.4,14.0,30.00,NNW,337,0.0,0.0,73,0.00,,,0.00,open2300-1.11,2013-01-08 08:37:00,
2013-01-08 02:47:00,21.4,14.0,30.00,NNW,337,0.0,0.0,73,0.00,,,0.00,open2300-1.11,2013-01-08 08:47:00,
2013-01-08 02:57:00,21.0,13.7,30.01,NNW,337,0.0,0.0,73,0.00,,,0.00,open2300-1.11,2013-01-08 08:57:00,
2013-01-08 03:07:00,20.8,13.5,30.00,NNW,337,0.0,0.0,73,0.00,,,0.00,open2300-1.11,2013-01-08 09:07:00,
2013-01-08 03:17:00,20.5,13.1,30.00,NNW,337,0.0,0.0,73,0.00,,,0.00,open2300-1.11,2013-01-08 09:17:00,
2013-01-08 03:27:00,20.1,12.8,30.00,NNW,337,0.0,0.0,73,0.00,,,0.00,open2300-1.11,2013-01-08 09:27:00,
2013-01-08 03:37:00,20.1,13.1,30.00,NNW,337,0.0,0.0,74,0.00,,,0.00,open2300-1.11,2013-01-08 09:37:00,
2013-01-08 03:47:00,19.9,12.9,30.00,NNW,337,0.0,0.0,74,0.00,,,0.00,open2300-1.11,2013-01-08 09:47:00,
2013-01-08 03:57:00,19.9,12.9,30.00,NNW,337,0.0,0.0,74,0.00,,,0.00,open2300-1.11,2013-01-08 09:57:00,
2013-01-08 04:07:00,19.9,12.9,30.00,NNW,337,0.0,0.0,74,0.00,,,0.00,open2300-1.11,2013-01-08 10:07:00,
2013-01-08 04:17:00,19.6,12.2,29.99,NNW,337,0.0,0.0,73,0.00,,,0.00,open2300-1.11,2013-01-08 10:17:00,
2013-01-08 04:27:00,19.2,11.9,29.99,NNW,337,0.0,0.0,73,0.00,,,0.00,open2300-1.11,2013-01-08 10:27:00,
2013-01-08 04:37:00,18.5,11.2,30.00,NNW,337,0.0,0.0,73,0.00,,,0.00,open2300-1.11,2013-01-08 10:37:00,
2013-01-08 04:47:00,18.5,11.5,30.00,NNW,337,0.0,0.0,74,0.00,,,0.00,open2300-1.11,2013-01-08 10:47:00,
2013-01-08 04:57:00,18.7,11.7,29.99,NNW,337,0.0,0.0,74,0.00,,,0.00,open2300-1.11,2013-01-08 10:57:00,
2013-01-08 05:07:00,18.3,11.0,30.00,NNW,337,0.0,0.0,73,0.00,,,0.00,open2300-1.11,2013-01-08 11:07:00,
2013-01-08 05:17:00,18.0,11.0,29.99,NNW,337,0.0,0.0,74,0.00,,,0.00,open2300-1.11,2013-01-08 11:17:00,
2013-01-08 05:27:00,18.1,11.2,30.00,NNW,337,0.0,0.0,74,0.00,,,0.00,open2300-1.11,2013-01-08 11:27:00,
2013-01-08 05:37:00,18.3,11.3,30.00,NNW,337,0.0,0.0,74,0.00,,,0.00,open2300-1.11,2013-01-08 11:37:00,
2013-01-08 05:47:00,18.3,11.3,30.00,NNW,337,0.0,0.0,74,0.00,,,0.00,open2300-1.11,2013-01-08 11:47:00,
2013-01-08 05:57:00,18.3,11.3,30.00,NNW,337,0.0,0.0,74,0.00,,,0.00,open2300-1.11,2013-01-08 11:57:00,
2013-01-08 06:07:00,18.3,11.3,29.99,NNW,337,0.0,0.0,74,0.00,,,0.00,open2300-1.11,2013-01-08 12:07:00,
2013-01-08 06:17:00,18.1,10.9,30.00,NNW,337,0.0,0.0,73,0.00,,,0.00,open2300-1.11,2013-01-08 12:17:00,
2013-01-08 06:27:00,18.0,10.7,30.00,NNW,337,0.0,0.0,73,0.00,,,0.00,open2300-1.11,2013-01-08 12:27:00,
2013-01-08 06:37:00,17.8,10.5,29.99,NNW,337,0.0,0.0,73,0.00,,,0.00,open2300-1.11,2013-01-08 12:37:00,
2013-01-08 06:47:00,17.4,10.2,30.00,NNW,337,0.0,0.0,73,0.00,,,0.00,open2300-1.11,2013-01-08 12:47:00,
2013-01-08 06:57:00,17.4,10.5,30.00,NNW,337,0.0,0.0,74,0.00,,,0.00,open2300-1.11,2013-01-08 12:57:00,
2013-01-08 07:07:00,17.2,10.3,30.00,NNW,337,0.0,0.0,74,0.00,,,0.00,open2300-1.11,2013-01-08 13:07:00,
2013-01-08 07:17:00,17.2,10.3,30.00,NNW,337,0.0,0.0,74,0.00,,,0.00,open2300-1.11,2013-01-08 13:17:00,
2013-01-08 07:27:00,17.2,10.3,30.00,NNW,337,0.0,0.0,74,0.00,,,0.00,open2300-1.11,2013-01-08 13:27:00,
2013-01-08 07:37:00,17.4,10.5,30.00,NNW,337,0.0,0.0,74,0.00,,,0.00,open2300-1.11,2013-01-08 13:37:00,
2013-01-08 07:47:00,17.4,10.5,30.00,NNW,337,0.0,0.0,74,0.00,,,0.00,open2300-1.11,2013-01-08 13:47:00,
2013-01-08 07:57:00,16.9,9.9,30.01,NNW,337,0.0,0.0,74,0.00,,,0.00,open2300-1.11,2013-01-08 13:57:00,
2013-01-08 08:07:00,16.9,9.9,30.01,NNW,337,0.0,0.0,74,0.00,,,0.00,open2300-1.11,2013-01-08 14:07:00,
2013-01-08 08:17:00,16.9,9.9,30.00,NNW,337,0.0,0.0,74,0.00,,,0.00,open2300-1.11,2013-01-08 14:17:00,
2013-01-08 08:27:00,17.2,10.3,30.00,NNW,337,0.0,0.0,74,0.00,,,0.00,open2300-1.11,2013-01-08 14:27:00,
2013-01-08 08:37:00,17.8,11.1,30.01,NNW,337,0.0,0.0,75,0.00,,,0.00,open2300-1.11,2013-01-08 14:37:00,
2013-01-08 08:47:00,18.1,11.4,30.01,NNW,337,0.0,0.0,75,0.00,,,0.00,open2300-1.11,2013-01-08 14:47:00,
2013-01-08 08:57:00,18.5,11.8,30.00,NNW,337,0.0,0.0,75,0.00,,,0.00,open2300-1.11,2013-01-08 14:57:00,
2013-01-08 09:07:00,19.0,12.3,30.01,NNW,337,0.0,0.0,75,0.00,,,0.00,open2300-1.11,2013-01-08 15:07:00,
2013-01-08 09:17:00,19.2,12.5,30.00,NNW,337,0.0,0.0,75,0.00,,,0.00,open2300-1.11,2013-01-08 15:17:00,
2013-01-08 09:27:00,19.6,13.1,30.00,NNW,337,0.0,0.0,76,0.00,,,0.00,open2300-1.11,2013-01-08 15:27:00,
2013-01-08 09:37:00,19.9,13.5,30.00,NNW,337,0.0,0.0,76,0.00,,,0.00,open2300-1.11,2013-01-08 15:37:00,
2013-01-08 09:47:00,20.5,14.0,30.00,NNW,337,0.0,0.0,76,0.00,,,0.00,open2300-1.11,2013-01-08 15:47:00,
2013-01-08 09:57:00,21.7,15.6,30.00,NNW,337,0.0,0.0,77,0.00,,,0.00,open2300-1.11,2013-01-08 15:57:00,
2013-01-08 10:07:00,22.8,16.7,29.99,NNW,337,0.0,0.0,77,0.00,,,0.00,open2300-1.11,2013-01-08 16:07:00,
2013-01-08 10:17:00,23.5,17.4,29.99,NNW,337,0.0,0.0,77,0.00,,,0.00,open2300-1.11,2013-01-08 16:17:00,
2013-01-08 10:27:00,24.4,18.2,29.98,NNW,337,0.0,0.0,77,0.00,,,0.00,open2300-1.11,2013-01-08 16:27:00,
2013-01-08 10:37:00,25.0,18.8,29.98,NNW,337,0.0,0.0,77,0.00,,,0.00,open2300-1.11,2013-01-08 16:37:00,
2013-01-08 10:47:00,26.2,19.9,29.97,NNW,337,0.0,0.0,77,0.00,,,0.00,open2300-1.11,2013-01-08 16:47:00,
2013-01-08 10:57:00,27.5,21.2,29.96,NNW,337,0.0,0.0,77,0.00,,,0.00,open2300-1.11,2013-01-08 16:57:00,
2013-01-08 11:07:00,28.2,21.9,29.96,NNW,337,0.0,0.0,77,0.00,,,0.00,open2300-1.11,2013-01-08 17:07:00,
2013-01-08 11:17:00,29.1,22.8,29.95,NNW,337,0.0,0.0,77,0.00,,,0.00,open2300-1.11,2013-01-08 17:17:00,
2013-01-08 11:27:00,30.0,23.6,29.95,NNW,337,0.0,0.0,77,0.00,,,0.00,open2300-1.11,2013-01-08 17:27:00,
2013-01-08 11:37:00,30.7,24.0,29.94,NNW,337,0.0,0.0,76,0.00,,,0.00,open2300-1.11,2013-01-08 17:37:00,
2013-01-08 11:47:00,31.6,24.9,29.93,NNW,337,0.0,0.0,76,0.00,,,0.00,open2300-1.11,2013-01-08 17:47:00,
2013-01-08 11:57:00,32.5,25.8,29.93,NNW,337,0.0,0.0,76,0.00,,,0.00,open2300-1.11,2013-01-08 17:57:00,
2013-01-08 12:07:00,32.9,26.1,29.92,NNW,337,0.0,0.0,76,0.00,,,0.00,open2300-1.11,2013-01-08 18:07:00,
2013-01-08 12:17:00,33.6,26.4,29.91,NNW,337,0.0,0.0,75,0.00,,,0.00,open2300-1.11,2013-01-08 18:17:00,
2013-01-08 12:27:00,34.3,26.8,29.91,NNW,337,0.0,0.0,74,0.00,,,0.00,open2300-1.11,2013-01-08 18:27:00,
2013-01-08 12:37:00,34.5,27.0,29.90,NNW,337,0.0,0.0,74,0.00,,,0.00,open2300-1.11,2013-01-08 18:37:00,
2013-01-08 12:47:00,34.9,27.0,29.89,NNW,337,0.0,0.0,73,0.00,,,0.00,open2300-1.11,2013-01-08 18:47:00,
2013-01-08 12:57:00,35.2,27.4,29.88,NNW,337,0.0,0.0,73,0.00,,,0.00,open2300-1.11,2013-01-08 18:57:00,
2013-01-08 13:07:00,35.4,27.6,29.89,NNW,337,0.0,0.0,73,0.00,,,0.00,open2300-1.11,2013-01-08 19:07:00,
2013-01-08 13:17:00,36.0,27.8,29.88,NNW,337,0.0,0.0,72,0.00,,,0.00,open2300-1.11,2013-01-08 19:17:00,
2013-01-08 13:27:00,36.1,28.0,29.87,NNW,337,0.0,0.0,72,0.00,,,0.00,open2300-1.11,2013-01-08 19:27:00,
2013-01-08 13:37:00,36.1,27.6,29.87,NNW,337,0.0,0.0,71,0.00,,,0.00,open2300-1.11,2013-01-08 19:37:00,
2013-01-08 13:47:00,36.1,27.6,29.87,NNW,337,0.0,0.0,71,0.00,,,0.00,open2300-1.11,2013-01-08 19:47:00,
2013-01-08 13:57:00,36.3,27.8,29.87,NNW,337,0.0,0.0,71,0.00,,,0.00,open2300-1.11,2013-01-08 19:57:00,
2013-01-08 14:07:00,36.9,28.0,29.86,NNW,337,0.0,0.0,70,0.00,,,0.00,open2300-1.11,2013-01-08 20:07:00,
2013-01-08 14:17:00,37.0,28.2,29.85,NNW,337,0.0,0.0,70,0.00,,,0.00,open2300-1.11,2013-01-08 20:17:00,
2013-01-08 14:27:00,37.0,28.2,29.86,NNW,337,0.0,0.0,70,0.00,,,0.00,open2300-1.11,2013-01-08 20:27:00,
2013-01-08 14:37:00,37.2,28.4,29.85,NNW,337,0.0,0.0,70,0.00,,,0.00,open2300-1.11,2013-01-08 20:37:00,
2013-01-08 14:47:00,37.2,28.4,29.85,NNW,337,0.0,0.0,70,0.00,,,0.00,open2300-1.11,2013-01-08 20:47:00,
2013-01-08 14:57:00,37.2,28.0,29.85,NNW,337,0.0,0.0,69,0.00,,,0.00,open2300-1.11,2013-01-08 20:57:00,
2013-01-08 15:05:00,37.2,28.0,29.84,NNW,337,0.0,0.0,69,0.00,,,0.00,open2300-1.11,2013-01-08 21:05:00,
2013-01-08 15:17:00,37.2,28.0,29.84,NNW,337,0.0,0.0,69,0.00,,,0.00,open2300-1.11,2013-01-08 21:17:00,
2013-01-08 15:27:00,37.2,28.0,29.83,NNW,337,0.0,0.0,69,0.00,,,0.00,open2300-1.11,2013-01-08 21:27:00,
2013-01-08 15:37:00,37.2,28.0,29.84,NNW,337,0.0,0.0,69,0.00,,,0.00,open2300-1.11,2013-01-08 21:37:00,
2013-01-08 15:47:00,37.2,28.0,29.84,NNW,337,0.0,0.0,69,0.00,,,0.00,open2300-1.11,2013-01-08 21:47:00,
2013-01-08 15:57:00,37.2,27.6,29.84,NNW,337,0.0,0.0,68,0.00,,,0.00,open2300-1.11,2013-01-08 21:57:00,
2013-01-08 16:07:00,37.0,27.8,29.84,NNW,337,0.0,0.0,69,0.00,,,0.00,open2300-1.11,2013-01-08 22:07:00,
2013-01-08 16:17:00,36.9,27.7,29.84,NNW,337,0.0,0.0,69,0.00,,,0.00,open2300-1.11,2013-01-08 22:17:00,
2013-01-08 16:27:00,36.7,27.5,29.83,NNW,337,0.0,0.0,69,0.00,,,0.00,open2300-1.11,2013-01-08 22:27:00,
2013-01-08 16:37:00,36.5,27.3,29.83,NNW,337,0.0,0.0,69,0.00,,,0.00,open2300-1.11,2013-01-08 22:37:00,
2013-01-08 16:47:00,36.3,27.1,29.83,NNW,337,0.0,0.0,69,0.00,,,0.00,open2300-1.11,2013-01-08 22:47:00,
2013-01-08 16:57:00,36.1,26.9,29.82,NNW,337,0.0,0.0,69,0.00,,,0.00,open2300-1.11,2013-01-08 22:57:00,
2013-01-08 17:07:00,35.8,26.6,29.82,NNW,337,0.0,0.0,69,0.00,,,0.00,open2300-1.11,2013-01-08 23:07:00,
2013-01-08 17:17:00,35.8,26.6,29.82,NNW,337,0.0,0.0,69,0.00,,,0.00,open2300-1.11,2013-01-08 23:17:00,
2013-01-08 17:27:00,35.4,26.2,29.82,NNW,337,0.0,0.0,69,0.00,,,0.00,open2300-1.11,2013-01-08 23:27:00,
2013-01-08 17:37:00,35.4,26.2,29.82,NNW,337,0.0,0.0,69,0.00,,,0.00,open2300-1.11,2013-01-08 23:37:00,
2013-01-08 17:47:00,35.2,26.1,29.82,NNW,337,0.0,0.0,69,0.00,,,0.00,open2300-1.11,2013-01-08 23:47:00,
2013-01-08 17:57:00,35.2,26.1,29.82,NNW,337,0.0,0.0,69,0.00,,,0.00,open2300-1.11,2013-01-08 23:57:00,
2013-01-08 18:07:00,35.2,26.1,29.82,NNW,337,0.0,0.0,69,0.00,,,0.00,open2300-1.11,2013-01-09 00:07:00,
2013-01-08 18:17:00,34.9,26.1,29.82,NNW,337,0.0,0.0,70,0.00,,,0.00,open2300-1.11,2013-01-09 00:17:00,
2013-01-08 18:27:00,34.9,26.1,29.81,NNW,337,0.0,0.0,70,0.00,,,0.00,open2300-1.11,2013-01-09 00:27:00,
2013-01-08 18:37:00,34.9,26.1,29.81,NNW,337,0.0,0.0,70,0.00,,,0.00,open2300-1.11,2013-01-09 00:37:00,
2013-01-08 18:47:00,34.9,26.1,29.80,NNW,337,0.0,0.0,70,0.00,,,0.00,open2300-1.11,2013-01-09 00:47:00,
2013-01-08 18:57:00,34.7,26.2,29.80,NNW,337,0.0,0.0,71,0.00,,,0.00,open2300-1.11,2013-01-09 00:57:00,
2013-01-08 19:07:00,34.5,26.0,29.80,NNW,337,0.0,0.0,71,0.00,,,0.00,open2300-1.11,2013-01-09 01:07:00,
2013-01-08 19:17:00,34.5,26.0,29.80,NNW,337,0.0,0.0,71,0.00,,,0.00,open2300-1.11,2013-01-09 01:17:00,
2013-01-08 19:27:00,34.3,25.8,29.80,NNW,337,0.0,0.0,71,0.00,,,0.00,open2300-1.11,2013-01-09 01:27:00,
2013-01-08 19:37:00,34.3,25.8,29.81,NNW,337,0.0,0.0,71,0.00,,,0.00,open2300-1.11,2013-01-09 01:37:00,
2013-01-08 19:47:00,34.3,25.8,29.81,NNW,337,0.0,0.0,71,0.00,,,0.00,open2300-1.11,2013-01-09 01:47:00,
2013-01-08 19:57:00,34.3,26.2,29.80,NNW,337,0.0,0.0,72,0.00,,,0.00,open2300-1.11,2013-01-09 01:57:00,
2013-01-08 20:07:00,34.5,26.4,29.79,NNW,337,0.0,0.0,72,0.00,,,0.00,open2300-1.11,2013-01-09 02:07:00,
2013-01-08 20:17:00,34.9,27.0,29.80,NNW,337,0.0,0.0,73,0.00,,,0.00,open2300-1.11,2013-01-09 02:17:00,
2013-01-08 20:27:00,35.2,27.4,29.81,NNW,337,0.0,0.0,73,0.00,,,0.00,open2300-1.11,2013-01-09 02:27:00,
2013-01-08 20:37:00,35.4,27.6,29.80,NNW,337,0.0,0.0,73,0.00,,,0.00,open2300-1.11,2013-01-09 02:37:00,
2013-01-08 20:47:00,35.8,27.9,29.80,NNW,337,0.0,0.0,73,0.00,,,0.00,open2300-1.11,2013-01-09 02:47:00,
2013-01-08 20:57:00,36.0,28.1,29.79,NNW,337,0.0,0.0,73,0.00,,,0.00,open2300-1.11,2013-01-09 02:57:00,
2013-01-08 21:07:00,36.3,28.5,29.80,NNW,337,0.0,0.0,73,0.00,,,0.00,open2300-1.11,2013-01-09 03:07:00,
2013-01-08 21:17:00,36.3,28.5,29.81,NNW,337,0.0,0.0,73,0.00,,,0.00,open2300-1.11,2013-01-09 03:17:00,
2013-01-08 21:27:00,36.5,28.6,29.81,NNW,337,0.0,0.0,73,0.00,,,0.00,open2300-1.11,2013-01-09 03:27:00,
2013-01-08 21:37:00,36.5,28.3,29.81,NNW,337,0.0,0.0,72,0.00,,,0.00,open2300-1.11,2013-01-09 03:37:00,
2013-01-08 21:47:00,36.5,28.3,29.82,NNW,337,0.0,0.0,72,0.00,,,0.00,open2300-1.11,2013-01-09 03:47:00,
2013-01-08 21:57:00,36.5,28.3,29.82,NNW,337,0.0,0.0,72,0.00,,,0.00,open2300-1.11,2013-01-09 03:57:00,
2013-01-08 22:07:00,36.3,28.1,29.83,NNW,337,0.0,0.0,72,0.00,,,0.00,open2300-1.11,2013-01-09 04:07:00,
2013-01-08 22:17:00,36.1,28.0,29.83,NNW,337,0.0,0.0,72,0.00,,,0.00,open2300-1.11,2013-01-09 04:17:00,
2013-01-08 22:27:00,36.0,27.8,29.83,NNW,337,0.0,0.0,72,0.00,,,0.00,open2300-1.11,2013-01-09 04:27:00,
2013-01-08 22:37:00,35.8,27.6,29.84,NNW,337,0.0,0.0,72,0.00,,,0.00,open2300-1.11,2013-01-09 04:37:00,
2013-01-08 22:47:00,35.4,27.2,29.85,NNW,337,0.0,0.0,72,0.00,,,0.00,open2300-1.11,2013-01-09 04:47:00,
2013-01-08 22:57:00,35.4,27.2,29.85,NNW,337,0.0,0.0,72,0.00,,,0.00,open2300-1.11,2013-01-09 04:57:00,
2013-01-08 23:07:00,35.2,27.1,29.85,NNW,337,0.0,0.0,72,0.00,,,0.00,open2300-1.11,2013-01-09 05:07:00,
2013-01-08 23:17:00,34.9,26.4,29.86,NNW,337,0.0,0.0,71,0.00,,,0.00,open2300-1.11,2013-01-09 05:17:00,
2013-01-08 23:27:00,34.7,26.5,29.86,NNW,337,0.0,0.0,72,0.00,,,0.00,open2300-1.11,2013-01-09 05:27:00,
2013-01-08 23:37:00,34.3,26.2,29.87,NNW,337,0.0,0.0,72,0.00,,,0.00,open2300-1.11,2013-01-09 05:37:00,
2013-01-08 23:47:00,34.3,26.2,29.87,NNW,337,0.0,0.0,72,0.00,,,0.00,open2300-1.11,2013-01-09 05:47:00,
2013-01-08 23:57:00,34.2,26.0,29.87,NNW,337,0.0,0.0,72,0.00,,,0.00,open2300-1.11,2013-01-09 05:57:00,